Weather History for K0E0 - September, 2013

Change the Weather History Date:

Friday, September 27, 2013

  Actual Average (KABQ) Record (KABQ)
Temperature  
Mean Temperature 58 °F 65 °F  
Max Temperature 73 °F 76 °F 90 °F (1953)
Min Temperature 43 °F 54 °F 31 °F (1912)
Degree Days  
Heating Degree Days 6 2  
Month to date heating degree days 18  
Since 1 July heating degree days 18  
Cooling Degree Days 0 2  
Month to date cooling degree days 151  
Year to date cooling degree days 1308  
Growing Degree Days 8 (Base 50)    
Moisture  
Dew Point 40 °F    
Average Humidity 55    
Maximum Humidity 85    
Minimum Humidity 32    
Precipitation  
Precipitation 0.00 in 0.04 in 0.25 in (1941)
Month to date precipitation 0.97  
Year to date precipitation 7.25  
Snow  
Snow 0.00 in - - ()
Month to date snowfall  
Since 1 July snowfall  
Since 1 September snowfall  
Snow Depth -    
Sea Level Pressure  
Sea Level Pressure 30.00 in    
Wind  
Wind Speed 11 mph (WSW)    
Max Wind Speed 24 mph    
Max Gust Speed 30 mph    
Visibility 10 miles    
Events      
T = Trace of Precipitation, MM = Missing Value Source: NWS Daily Summary

Daily Weather History Graph

Daily Weather History Graph

Search for Another Location

Airport or City:

Trip Planner

Search our weather history database for the weather conditions in past years. The results will help you decide how hot, cold, wet, or windy it might be!

Date:

Astronomy

Sep. 27, 2013 Rise Set
Actual Time 6:56 AM MDT 6:53 PM MDT
Civil Twilight 6:30 AM MDT 7:18 PM MDT
Nautical Twilight 6:01 AM MDT 7:47 PM MDT
Astronomical Twilight 5:31 AM MDT 8:17 PM MDT
Moon 12:06 AM MDT (9/27) 2:21 PM MDT (9/27)
Length of Visible Light 12h 47m
Length of Day
11h 57m
Last Quarter, 44% of the Moon is Illuminated
Sep 27
Last Quarter
Oct 4
New
Oct 11
First Quarter
Oct 18
Full
Oct 26
Last Quarter

Hourly Weather History & Observations

Time (MDT) Temp. Windchill Dew Point Humidity Pressure Visibility Wind Dir Wind Speed Gust Speed Precip Events Conditions
12:15 AM 52.3 °F - 41.5 °F 67% 29.99 in 10.0 mi South 9.2 mph - N/A   Mostly Cloudy
12:35 AM 51.4 °F - 41.4 °F 68% 29.98 in 10.0 mi SSE 9.2 mph - N/A   Scattered Clouds
12:55 AM 54.1 °F - 40.8 °F 61% 29.98 in 10.0 mi SSE 9.2 mph - N/A   Mostly Cloudy
1:15 AM 54.5 °F - 41.0 °F 60% 29.98 in 10.0 mi SSE 6.9 mph - N/A   Mostly Cloudy
1:35 AM 55.4 °F - 41.2 °F 59% 29.98 in 10.0 mi SSE 8.1 mph - N/A   Mostly Cloudy
1:55 AM 55.6 °F - 41.7 °F 60% 29.98 in 10.0 mi SSE 8.1 mph - N/A   Overcast
2:15 AM 54.9 °F - 41.0 °F 60% 29.98 in 10.0 mi SSE 6.9 mph - N/A   Overcast
2:35 AM 54.1 °F - 40.6 °F 60% 29.97 in 10.0 mi SSE 6.9 mph - N/A   Mostly Cloudy
2:55 AM 52.2 °F - 41.9 °F 68% 29.97 in 10.0 mi NNW 4.6 mph - N/A   Mostly Cloudy
3:15 AM 50.0 °F - 42.1 °F 74% 29.96 in 10.0 mi North 5.8 mph - N/A   Overcast
3:35 AM 48.6 °F - 42.8 °F 80% 29.96 in 10.0 mi Calm Calm - N/A   Overcast
3:55 AM 50.0 °F - 42.4 °F 75% 29.96 in 10.0 mi Calm Calm - N/A   Overcast
4:15 AM 51.6 °F - 43.5 °F 74% 29.96 in 10.0 mi Calm Calm - N/A   Overcast
4:35 AM 50.0 °F - 44.6 °F 82% 29.96 in 10.0 mi Calm Calm - N/A   Overcast
4:55 AM 50.9 °F - 45.3 °F 81% 29.96 in 10.0 mi Calm Calm - N/A   Overcast
5:15 AM 50.2 °F - 45.1 °F 83% 29.96 in 10.0 mi Calm Calm - N/A   Overcast
5:35 AM 50.2 °F - 45.9 °F 85% 29.96 in 10.0 mi Calm Calm - N/A   Overcast
5:55 AM 50.4 °F - 45.1 °F 82% 29.97 in 10.0 mi Calm Calm - N/A   Overcast
6:15 AM 51.8 °F - 45.1 °F 78% 29.97 in 10.0 mi SSW 3.5 mph - N/A   Overcast
6:35 AM 54.3 °F - 44.1 °F 68% 29.96 in 10.0 mi SSE 5.8 mph - N/A   Overcast
6:55 AM 55.8 °F - 42.8 °F 62% 29.96 in 10.0 mi SSE 6.9 mph - N/A   Overcast
7:15 AM 56.3 °F - 43.7 °F 63% 29.96 in 10.0 mi SSE 8.1 mph - N/A   Overcast
7:35 AM 56.7 °F - 44.1 °F 63% 29.97 in 10.0 mi South 9.2 mph - N/A   Overcast
7:55 AM 56.8 °F - 44.2 °F 63% 29.97 in 10.0 mi South 8.1 mph - N/A   Overcast
8:15 AM 57.4 °F - 45.0 °F 63% 29.97 in 10.0 mi South 8.1 mph - N/A   Overcast
8:35 AM 59.9 °F - 45.3 °F 59% 29.98 in 10.0 mi South 9.2 mph - N/A   Overcast
8:55 AM 61.0 °F - 45.1 °F 56% 29.98 in 10.0 mi South 11.5 mph - N/A   Overcast
9:15 AM 62.6 °F - 45.7 °F 54% 29.98 in 10.0 mi South 12.7 mph - N/A   Mostly Cloudy
9:35 AM 62.6 °F - 45.9 °F 54% 29.98 in 10.0 mi South 10.4 mph - N/A   Overcast
9:55 AM 66.0 °F - 46.0 °F 48% 29.97 in 10.0 mi South 15.0 mph - N/A   Mostly Cloudy
10:15 AM 67.3 °F - 46.4 °F 47% 29.97 in 10.0 mi South 16.1 mph 23.0 mph N/A   Mostly Cloudy
10:35 AM 69.6 °F - 44.8 °F 41% 29.96 in 10.0 mi SSW 18.4 mph 25.3 mph N/A   Overcast
10:55 AM 68.4 °F - 43.9 °F 41% 29.96 in 10.0 mi SSW 19.6 mph 28.8 mph N/A   Overcast
11:15 AM 67.8 °F - 42.8 °F 40% 29.95 in 10.0 mi SW 18.4 mph 25.3 mph N/A   Mostly Cloudy
11:35 AM 68.0 °F - 40.8 °F 37% 29.95 in 10.0 mi SW 21.9 mph 25.3 mph N/A   Mostly Cloudy
11:55 AM 69.1 °F - 41.4 °F 37% 29.95 in 10.0 mi SW 16.1 mph - N/A   Scattered Clouds
12:15 PM 70.9 °F - 41.2 °F 34% 29.94 in 10.0 mi SW 21.9 mph 26.5 mph N/A   Scattered Clouds
12:35 PM 73.0 °F - 41.4 °F 32% 29.93 in 10.0 mi SW 19.6 mph 26.5 mph N/A   Scattered Clouds
12:55 PM 70.3 °F - 42.3 °F 36% 29.93 in 10.0 mi SSW 19.6 mph 25.3 mph N/A   Mostly Cloudy
1:15 PM 72.1 °F - 42.4 °F 34% 29.92 in 10.0 mi West 17.3 mph 25.3 mph N/A   Mostly Cloudy
1:35 PM 68.5 °F - 45.5 °F 44% 29.93 in 10.0 mi West 19.6 mph 24.2 mph N/A   Mostly Cloudy
1:55 PM 69.3 °F - 45.3 °F 42% 29.93 in 10.0 mi WSW 17.3 mph 25.3 mph N/A   Mostly Cloudy
2:15 PM 70.0 °F - 44.4 °F 40% 29.92 in 10.0 mi West 17.3 mph 24.2 mph N/A   Scattered Clouds
2:35 PM 70.3 °F - 44.1 °F 39% 29.93 in 10.0 mi West 13.8 mph 23.0 mph N/A   Mostly Cloudy
2:55 PM 66.7 °F - 44.8 °F 45% 29.94 in 10.0 mi West 16.1 mph 20.7 mph N/A   Overcast
3:15 PM 63.3 °F - 44.8 °F 51% 29.95 in 10.0 mi NW 19.6 mph - N/A   Overcast
3:35 PM 61.0 °F - 43.0 °F 52% 29.95 in 10.0 mi NW 21.9 mph 27.6 mph N/A   Overcast
3:55 PM 59.7 °F - 41.9 °F 52% 29.96 in 10.0 mi NW 20.7 mph 27.6 mph N/A   Overcast
4:15 PM 58.6 °F - 39.7 °F 49% 29.98 in 10.0 mi NW 23.0 mph 29.9 mph N/A   Overcast
4:35 PM 57.9 °F - 38.1 °F 48% 29.99 in 10.0 mi NW 24.2 mph 29.9 mph N/A   Overcast
4:55 PM 56.5 °F - 37.4 °F 49% 30.00 in 10.0 mi NW 23.0 mph 27.6 mph N/A   Overcast
5:15 PM 55.4 °F - 36.5 °F 49% 30.01 in 10.0 mi NW 24.2 mph 27.6 mph N/A   Overcast
5:35 PM 54.9 °F - 35.2 °F 48% 30.02 in 10.0 mi NW 18.4 mph 24.2 mph N/A   Overcast
5:55 PM 54.3 °F - 33.4 °F 45% 30.02 in 10.0 mi NW 21.9 mph 27.6 mph N/A   Overcast
6:15 PM 54.0 °F - 33.1 °F 45% 30.04 in 10.0 mi NW 17.3 mph 23.0 mph N/A   Overcast
6:35 PM 53.4 °F - 32.5 °F 45% 30.04 in 10.0 mi NNW 19.6 mph 25.3 mph N/A   Overcast
6:55 PM 52.7 °F - 32.4 °F 46% 30.04 in 10.0 mi NNW 17.3 mph - N/A   Overcast
7:15 PM 52.0 °F - 32.0 °F 47% 30.05 in 10.0 mi NW 19.6 mph 24.2 mph N/A   Overcast
7:35 PM 51.4 °F - 31.8 °F 47% 30.05 in 10.0 mi NW 23.0 mph 29.9 mph N/A   Overcast
7:55 PM 51.3 °F - 32.0 °F 48% 30.07 in 10.0 mi NNW 18.4 mph 26.5 mph N/A   Overcast
8:15 PM 50.4 °F - 32.4 °F 50% 30.08 in 10.0 mi NW 18.4 mph 21.9 mph N/A   Overcast
8:35 PM 50.9 °F - 32.0 °F 48% 30.08 in 10.0 mi NW 21.9 mph 27.6 mph N/A   Overcast
8:55 PM 50.9 °F - 32.0 °F 48% 30.10 in 10.0 mi NW 18.4 mph 26.5 mph N/A   Overcast
9:15 PM 50.4 °F - 31.3 °F 48% 30.10 in 10.0 mi NW 11.5 mph 18.4 mph N/A   Overcast
9:35 PM 50.0 °F - 29.8 °F 46% 30.10 in 10.0 mi WNW 19.6 mph 24.2 mph N/A   Mostly Cloudy
9:55 PM 48.6 °F - 30.0 °F 49% 30.11 in 10.0 mi NW 24.2 mph 29.9 mph N/A   Scattered Clouds
10:15 PM 46.8 °F - 29.5 °F 51% 30.13 in 10.0 mi NW 10.4 mph - N/A   Clear
10:35 PM 44.6 °F - 29.5 °F 55% 30.13 in 10.0 mi Calm Calm - N/A   Clear
10:55 PM 44.1 °F 38.6 °F 29.3 °F 56% 30.13 in 10.0 mi NW 10.4 mph - N/A   Clear
11:15 PM 45.0 °F 38.5 °F 28.0 °F 52% 30.13 in 10.0 mi WNW 13.8 mph - N/A   Clear
11:35 PM 44.6 °F 40.7 °F 27.5 °F 51% 30.15 in 10.0 mi WNW 6.9 mph - N/A   Clear
11:55 PM 43.3 °F 38.1 °F 27.3 °F 53% 30.15 in 10.0 mi WNW 9.2 mph - N/A   Clear